Flag for U.S.A. Weather past 2 weeks in Glendale, Arizona, U.S.A.

Now
73 °F

Clear.


Feels Like: 74 °F
Forecast: 56 / 78 °F
Wind: 3 mph from East

Location: Phoenix-Deer Valley Municipal Airport

Current Time: Mar 6, 2015 at 7:39:34 PM

Latest Report: Mar 6, 2015 at 6:53 PM


Visibility: 10 mi

Pressure: 29.95 "Hg

Humidity: 11%

Dew point: 16 °F

Location of GlendaleLocation

Historic Weather in Glendale — Graph

°F

Glendale temperature yesterday

Maximum temperature yesterday: 73 °F (at 4:53 PM)
Minimum temperature yesterday: 45 °F (at 6:53 AM)
Average temperature yesterday: 59 °F

Past Weeks' High & Low Weather Summary

 TemperatureHumidityPressure
High79 °F (Mar 6, 2:53 PM)96% (Feb 24, 1:53 AM)30.28 "Hg (Feb 24, 1:53 AM)
Low43 °F (Feb 25, 4:53 AM)6% (Mar 6, 1:53 PM)29.57 "Hg (Feb 27, 4:53 PM)
Average59 °F48%29.90 "Hg
* Reported Feb 19 5:53 PM — Mar 6 5:53 PM, Glendale, Weather by CustomWeather, © 2015

Note: Actual official high and low records may vary slightly from our data, if they occured in-between our weather recording intervals... More about our weather records

Advertising

Glendale weather history for previous 24 hours

 ConditionsComfort  
Time TempWeatherWind HumidityBarometerVisibility
5:53 PM
Fri, Mar 6
78 °FSunny.7 mph8%29.94 "Hg10 mi
4:53 PM79 °FSunny.9 mph7%29.94 "Hg10 mi
3:53 PM79 °FSunny.9 mph6%29.96 "Hg10 mi
2:53 PM79 °FSunny.12 mph6%29.97 "Hg10 mi
1:53 PM78 °FSunny.15 mph6%30.00 "Hg10 mi
12:53 PM76 °FSunny.13 mph9%30.03 "Hg10 mi
11:53 AM74 °FSunny.15 mph8%30.07 "Hg10 mi
10:53 AM72 °FSunny.14 mph9%30.10 "Hg10 mi
9:53 AM70 °FSunny.6 mph11%30.12 "Hg10 mi
8:53 AM64 °FSunny.No wind15%30.13 "Hg10 mi
7:53 AM58 °FSunny.7 mph20%30.13 "Hg10 mi
6:53 AM54 °FSunny.6 mph21%30.12 "Hg10 mi
5:53 AM52 °FClear.7 mph25%30.12 "Hg10 mi
4:53 AM52 °FClear.8 mph25%30.11 "Hg10 mi
3:53 AM49 °FClear.3 mph35%30.12 "Hg10 mi
2:53 AM52 °FClear.6 mph27%30.13 "Hg10 mi
1:53 AM53 °FClear.6 mph31%30.14 "Hg10 mi
12:53 AM56 °FClear.6 mph27%30.14 "Hg10 mi
11:53 PM
Thu, Mar 5
56 °FClear.9 mph29%30.15 "Hg10 mi
10:53 PM56 °FClear.7 mph33%30.15 "Hg10 mi
9:53 PM55 °FClear.No wind40%30.15 "Hg10 mi
8:53 PM57 °FClear.No wind34%30.15 "Hg10 mi
7:53 PM62 °FClear.No wind22%30.15 "Hg10 mi
Weather by CustomWeather, © 2015

See weather overviewHow to use our weather pages